Hourly Weather Roundup
Issued by NWS Central Illinois

Home | Current Version | Previous Version | Text Only | Print | Product List | Glossary On
Versions: 1 2 3 4 5 6 7 8 9 10 11 12 13 14 15 16 17 18 19 20 21 22 23 24 25 26 27 28 29 30 31 32 33 34 35 36 37 38 39 40 41 42 43 44 45 46 47 48 49 50
000
NZUS43 KILX 260110
HWRILX

AREA WEATHER ROUNDUP
NATIONAL WEATHER SERVICE, LINCOLN IL
800 PM CDT SUN SEP 25 2016


CITY           SKY/WX    TMP DP  RH WIND       PRES   REMARKS
BLOOMINGTON    CLOUDY    79  66  64 W15G21    29.98R HX  81
CHAMPAIGN      PTCLDY    75  67  76 S6        29.98R
DANVILLE       RAIN      72  69  90 S3        29.95S
DECATUR        PTCLDY    81  66  60 W6        29.98R HX  83
EFFINGHAM      PTCLDY    76  73  92 CALM      30.01R
FLORA          CLOUDY    78  72  83 CALM      29.99S HX  80
GALESBURG      PTCLDY    67  55  65 W13G21    30.04R
JACKSONVILLE   PTCLDY    76  66  71 W9        30.01R
LACON          CLEAR     73  62  68 W12G18    29.98R
LAWRENCEVILLE  CLEAR     77  68  73 S5        29.99R
LITCHFIELD     CLEAR     75  66  75 SW3       30.00R
$$


CITY           SKY/WX    TMP DP  RH WIND       PRES   REMARKS
LINCOLN        PTCLDY    81  68  65 W5        29.98R HX  83
MACOMB         CLOUDY    68  55  63 NW17      30.06R
MATTOON        CLEAR     76  66  71 S5        29.98R
MT CARMEL AP   CLEAR     77  69  75 CALM      29.99S
OLNEY-NOBLE AP MOCLDY    73  72  94 CALM      30.00R
PARIS          PTCLDY    71  67  85 CALM      29.99S
PEORIA         CLEAR     74  65  73 NW14      29.99R
PONTIAC        MOCLDY    80  68  67 W16       29.96R HX  82
RANTOUL        PTCLDY    75  69  82 CALM      29.97R
ROBINSON       CLEAR     73  68  86 CALM      30.00R
SPRINGFIELD    CLOUDY    79  66  64 W6        29.99R HX  81
TAYLORVILLE    CLEAR     77  66  69 W3        29.99R
$$

...REGIONAL REPORTS...


CITY           SKY/WX    TMP DP  RH WIND       PRES   REMARKS
CHICAGO O`HARE MOCLDY    74  69  85 CALM      29.90S
KANKAKEE       CLEAR     74  68  81 S6        29.94S
MOLINE         CLOUDY    68  52  56 W14       30.02R
MOUNT STERLING CLOUDY    70  55  59 NW16G23   30.04R
MOUNT VERNON   CLOUDY    77  66  69 CALM      30.01R
PITTSFIELD     PTCLDY    75  66  72 W9        30.05R
QUINCY         CLOUDY    68  56  65 NW18G26   30.06R
ROCKFORD       CLOUDY    72  57  59 W17G31    29.96R
$$


CITY           SKY/WX    TMP DP  RH WIND       PRES   REMARKS
BURLINGTON     CLOUDY    66  55  67 NW6       30.06R
CEDAR RAPIDS   CLOUDY    63  52  67 W17G25    30.03R
DES MOINES     CLOUDY    61  50  67 NW6       30.10R
KIRKSVILLE     CLOUDY    63  56  78 W3        30.11R
OTTUMWA        CLOUDY    64  49  57 W13       30.09R
ST LOUIS       CLOUDY    81  66  60 NW12G20   30.02R HX  83
$$


CITY           SKY/WX    TMP DP  RH WIND       PRES   REMARKS
TERRE HAUTE    PTCLDY    76  69  79 CALM      29.99R
EVANSVILLE       N/A     79  69  71 CALM      30.00R HX  81
INDIANAPOLIS   PTCLDY    79  67  66 S10       29.99S HX  81
LAFAYETTE      CLOUDY    71  67  87 CALM      29.96F
MADISON        CLOUDY    67  55  65 W9G22     29.93R
MILWAUKEE      HVY RAIN  72  70  93 S10       29.87F FOG
$$






USA.gov is the U.S. government's official web portal to all federal, state and local government web resources and services.